KLM785 EHAM-MDPC

Flight info

Callsign KLM785
Flight time N/A
Altitude 34000
Route IDRID L980 LOGAN SAM N19 ADKIK JOZMA GAPLI EVBAK TAMEL 45N020W 41N030W 35N040W 30N050W 273000N0550000W FIVZE M597 KEEKA KATOK
Aircraft B772/H-SDE2E3FGHIJ5LORVWXY/LB1D1

Departure

Time 2026-04-29 11:25
Airport Amsterdam Airport Schiphol (EHAM)

Arrival

Time N/A
Airport Punta Cana International Airport (MDPC)
Time Latitude Longitude Altitude Speed Heading
2026-04-29 10:38 52.30802 4.76712 3 ft 0 kts 340°
2026-04-29 11:00 52.30797 4.76715 3 ft 2 kts 340°
2026-04-29 11:00 52.30778 4.76726 3 ft 3 kts 340°
2026-04-29 11:00 52.30759 4.76737 3 ft 3 kts 340°
2026-04-29 11:00 52.30742 4.76747 7 ft 3 kts 341°
2026-04-29 11:01 52.30723 4.76754 6 ft 3 kts 12°
2026-04-29 11:01 52.30705 4.76743 5 ft 3 kts 26°
2026-04-29 11:01 52.30687 4.76731 4 ft 3 kts
2026-04-29 11:01 52.30671 4.76735 4 ft 2 kts 329°
2026-04-29 11:02 52.30655 4.76752 7 ft 3 kts 326°
2026-04-29 11:02 52.30639 4.76770 5 ft 3 kts 327°
2026-04-29 11:02 52.30622 4.76789 5 ft 3 kts 314°
2026-04-29 11:02 52.30610 4.76814 4 ft 3 kts 299°
2026-04-29 11:03 52.30601 4.76843 4 ft 3 kts 294°
2026-04-29 11:03 52.30595 4.76872 5 ft 3 kts 303°
2026-04-29 11:03 52.30582 4.76893 6 ft 3 kts 325°
2026-04-29 11:03 52.30565 4.76910 6 ft 3 kts 329°
2026-04-29 11:04 52.30558 4.76916 5 ft 0 kts 328°
2026-04-29 11:08 52.30563 4.76912 6 ft 3 kts 328°
2026-04-29 11:08 52.30593 4.76883 4 ft 7 kts 336°
2026-04-29 11:09 52.30638 4.76889 3 ft 7 kts 29°
2026-04-29 11:09 52.30653 4.76962 3 ft 10 kts 90°
2026-04-29 11:09 52.30649 4.77114 3 ft 15 kts 93°
2026-04-29 11:09 52.30643 4.77281 3 ft 15 kts 93°
2026-04-29 11:10 52.30642 4.77448 3 ft 15 kts 89°
2026-04-29 11:10 52.30681 4.77586 3 ft 15 kts 19°
2026-04-29 11:10 52.30780 4.77599 3 ft 15 kts
2026-04-29 11:10 52.30885 4.77609 3 ft 15 kts
2026-04-29 11:11 52.30988 4.77619 3 ft 15 kts
2026-04-29 11:11 52.31090 4.77628 3 ft 15 kts
2026-04-29 11:11 52.31207 4.77639 3 ft 19 kts
2026-04-29 11:11 52.31342 4.77651 3 ft 19 kts
2026-04-29 11:12 52.31472 4.77613 3 ft 19 kts 328°
2026-04-29 11:12 52.31562 4.77456 3 ft 19 kts 298°
2026-04-29 11:12 52.31573 4.77236 3 ft 21 kts 267°
2026-04-29 11:12 52.31565 4.76992 3 ft 23 kts 266°
2026-04-29 11:13 52.31556 4.76732 3 ft 23 kts 266°
2026-04-29 11:13 52.31547 4.76475 3 ft 23 kts 266°
2026-04-29 11:13 52.31538 4.76215 3 ft 23 kts 266°
2026-04-29 11:13 52.31529 4.75955 3 ft 23 kts 267°
2026-04-29 11:14 52.31520 4.75696 3 ft 23 kts 266°
2026-04-29 11:14 52.31511 4.75440 3 ft 23 kts 266°
2026-04-29 11:14 52.31502 4.75180 3 ft 23 kts 266°
2026-04-29 11:14 52.31493 4.74915 3 ft 24 kts 266°
2026-04-29 11:15 52.31484 4.74644 3 ft 24 kts 267°
2026-04-29 11:15 52.31476 4.74406 3 ft 12 kts 267°
2026-04-29 11:15 52.31510 4.74305 3 ft 12 kts 341°
2026-04-29 11:15 52.31595 4.74303 3 ft 12 kts
2026-04-29 11:16 52.31680 4.74311 3 ft 13 kts
2026-04-29 11:16 52.31797 4.74322 3 ft 20 kts
2026-04-29 11:16 52.31933 4.74335 3 ft 20 kts
2026-04-29 11:16 52.32032 4.74238 3 ft 19 kts 270°
2026-04-29 11:17 52.32038 4.74023 2 ft 19 kts 273°
2026-04-29 11:17 52.32045 4.73805 4 ft 19 kts 274°
2026-04-29 11:17 52.32052 4.73584 3 ft 19 kts 273°
2026-04-29 11:17 52.32082 4.73378 3 ft 19 kts 302°
2026-04-29 11:18 52.32184 4.73221 3 ft 21 kts 319°
2026-04-29 11:18 52.32296 4.73066 3 ft 21 kts 320°
2026-04-29 11:18 52.32407 4.72910 3 ft 22 kts 319°
2026-04-29 11:18 52.32522 4.72749 3 ft 22 kts 319°
2026-04-29 11:19 52.32635 4.72586 3 ft 22 kts 319°
2026-04-29 11:19 52.32739 4.72409 3 ft 22 kts 311°
2026-04-29 11:19 52.32840 4.72225 3 ft 22 kts 311°
2026-04-29 11:19 52.32940 4.72039 3 ft 22 kts 311°
2026-04-29 11:20 52.33039 4.71854 3 ft 22 kts 311°
2026-04-29 11:20 52.33136 4.71664 3 ft 22 kts 299°
2026-04-29 11:20 52.33097 4.71450 3 ft 22 kts 222°
2026-04-29 11:20 52.32984 4.71289 3 ft 22 kts 221°
2026-04-29 11:21 52.32890 4.71151 3 ft 12 kts 226°
2026-04-29 11:21 52.32865 4.71078 4 ft 0 kts 255°
2026-04-29 11:23 52.32864 4.71068 3 ft 5 kts 259°
2026-04-29 11:23 52.32863 4.70938 2 ft 11 kts 271°
2026-04-29 11:24 52.32907 4.70895 2 ft 8 kts
2026-04-29 11:24 52.32914 4.70896 2 ft 0 kts
2026-04-29 11:25 52.33040 4.70909 1 ft 52 kts
2026-04-29 11:25 52.33674 4.70971 5 ft 126 kts
2026-04-29 11:25 52.34345 4.71023 5 ft 164 kts
2026-04-29 11:25 52.35795 4.71161 663 ft 179 kts
2026-04-29 11:26 52.38367 4.71406 2123 ft 203 kts 10°
2026-04-29 11:26 52.39859 4.71543 2393 ft 221 kts
2026-04-29 11:26 52.41472 4.71680 2660 ft 242 kts
2026-04-29 11:27 52.43138 4.71202 3014 ft 264 kts 340°
2026-04-29 11:27 52.44690 4.69371 3564 ft 279 kts 320°
2026-04-29 11:27 52.45981 4.67076 4087 ft 286 kts 309°
2026-04-29 11:27 52.46719 4.64144 4712 ft 294 kts 276°
2026-04-29 11:28 52.46729 4.60849 5303 ft 295 kts 269°
2026-04-29 11:28 52.46716 4.57531 5879 ft 298 kts 269°